GW6359 Weather Reports


Display with metric or nautical units.
time (UTC)temp
F
wind
direction
speed
MPH
gust
MPH
rain 1hr
in
rain 24hr
in
rain mn
in
humidity
%
barometer
mb
20260510033503 75 0 0.0 0.0 0.00 0.53 0.00 84 1009.6
20260510033217 75 0 0.0 0.0 0.00 0.53 0.00 84 1009.5
20260510032503 76 0 0.0 0.0 0.00 0.53 0.00 83 1009.5
20260510032003 76 288 0.0 1.0 0.00 0.53 0.00 82 1009.7
20260510031503 76 288 0.0 1.0 0.00 0.53 0.00 82 1009.5
20260510031003 77 308 0.0 1.0 0.00 0.53 0.00 81 1009.3
20260510030503 77 309 0.0 1.0 0.00 0.53 0.00 81 1009.3
20260510030003 77 263 0.0 1.0 0.00 0.53 0.00 80 1009.3
20260510025503 78 230 0.0 1.0 0.00 0.53 0.00 79 1009.0
20260510025003 78 226 0.0 1.0 0.00 0.53 0.00 78 1009.2
20260510024503 78 230 0.0 2.0 0.00 0.53 0.00 78 1009.0
20260510024003 78 212 0.0 2.0 0.00 0.53 0.00 77 1009.0
20260510023503 79 193 0.0 3.0 0.00 0.53 0.00 77 1008.7
20260510023003 79 211 1.0 3.0 0.00 0.53 0.00 77 1008.8
20260510022503 79 214 1.0 3.0 0.00 0.53 0.00 77 1008.8
20260510022003 79 208 1.0 3.0 0.00 0.53 0.00 76 1008.7
20260510021503 80 211 1.0 3.0 0.00 0.53 0.00 76 1008.7
20260510021003 80 209 0.0 2.0 0.00 0.53 0.00 75 1008.5
20260510020503 80 208 0.0 2.0 0.00 0.53 0.00 75 1008.5
20260510020003 80 213 1.0 2.0 0.00 0.53 0.00 74 1008.5
20260510015717 81 208 1.0 3.0 0.00 0.53 0.00 74 1008.4
20260510015003 81 198 1.0 5.0 0.00 0.53 0.00 73 1008.2
20260510014717 81 196 1.0 5.0 0.00 0.53 0.00 72 1008.4
20260510014003 82 238 1.0 3.0 0.00 0.53 0.00 71 1008.2
20260510013503 82 225 0.0 2.0 0.00 0.53 0.00 70 1008.2
20260510013218 82 215 0.0 2.0 0.00 0.53 0.00 69 1008.0
20260510012503 82 210 0.0 2.0 0.00 0.53 0.00 69 1008.1
20260510012003 83 220 0.0 1.0 0.00 0.53 0.00 68 1008.1
20260510011503 83 227 0.0 2.0 0.00 0.53 0.00 67 1007.8
20260510011003 84 239 1.0 3.0 0.00 0.53 0.00 67 1007.9
20260510010503 84 232 1.0 3.0 0.00 0.53 0.00 65 1007.9
20260510010003 84 234 1.0 2.0 0.00 0.53 0.00 65 1007.8
20260510005503 85 239 1.0 2.0 0.00 0.53 0.00 64 1007.8
20260510005218 85 228 1.0 2.0 0.00 0.53 0.00 64 1007.8
20260510004503 86 207 1.0 2.0 0.00 0.53 0.00 61 1007.8
20260510004003 86 204 1.0 2.0 0.00 0.53 0.00 61 1007.7
20260510003503 87 209 0.0 2.0 0.00 0.53 0.00 60 1007.7
20260510003217 87 207 0.0 3.0 0.00 0.53 0.00 59 1007.7
20260510002503 87 213 1.0 3.0 0.00 0.53 0.00 58 1007.8
20260510002003 88 212 1.0 4.0 0.00 0.53 0.00 58 1007.6
20260510001716 88 209 1.0 4.0 0.00 0.53 0.00 59 1007.7
20260510001003 88 217 2.0 4.0 0.00 0.53 0.00 58 1007.6
20260510000503 88 214 1.0 4.0 0.00 0.53 0.00 58 1007.2
20260510000219 88 217 1.0 3.0 0.00 0.53 0.00 57 1007.5
20260509235503 88 224 1.0 3.0 0.00 0.53 0.00 56 1007.5
20260509235003 88 209 1.0 3.0 0.00 0.53 0.00 56 1007.3
20260509234716 88 213 1.0 4.0 0.00 0.53 0.00 56 1007.3
20260509234003 88 221 2.0 4.0 0.00 0.53 0.00 55 1007.3
20260509233503 88 209 1.0 4.0 0.00 0.53 0.00 55 1007.3
20260509233003 88 205 1.0 3.0 0.00 0.53 0.00 55 1007.2
20260509232503 88 218 1.0 4.0 0.00 0.53 0.00 54 1007.3
20260509232003 88 235 1.0 4.0 0.00 0.53 0.00 54 1007.2
20260509231503 88 263 1.0 3.0 0.00 0.53 0.00 53 1007.1
20260509231217 87 279 1.0 3.0 0.00 0.53 0.00 54 1007.2
20260509230718 87 273 0.0 2.0 0.00 0.53 0.00 54 1007.1
20260509230003 86 247 1.0 4.0 0.00 0.53 0.00 54 1007.2
20260509225503 86 268 1.0 4.0 0.00 0.53 0.53 54 1007.4
20260509225003 86 275 1.0 2.0 0.00 0.53 0.53 54 1007.2
20260509224503 85 223 1.0 2.0 0.00 0.53 0.53 53 1007.3
20260509224004 84 259 1.0 2.0 0.00 0.53 0.53 55 1007.3
20260509223503 84 196 1.0 4.0 0.00 0.53 0.53 55 1007.3
20260509223003 84 179 1.0 4.0 0.00 0.53 0.53 53 1007.3
20260509222503 84 190 1.0 4.0 0.00 0.53 0.53 53 1007.2
20260509222003 83 195 1.0 2.0 0.00 0.53 0.53 49 1007.3
20260509221503 83 187 1.0 2.0 0.00 0.53 0.53 53 1007.3
20260509221003 82 198 1.0 3.0 0.00 0.53 0.53 50 1007.3
20260509220503 82 214 1.0 4.0 0.00 0.53 0.53 48 1007.1
20260509220216 82 187 1.0 4.0 0.00 0.53 0.53 48 1007.2
20260509215503 81 213 1.0 3.0 0.00 0.53 0.53 51 1007.3
20260509215216 83 228 1.0 3.0 0.00 0.53 0.53 53 1007.5
20260509214503 83 230 2.0 4.0 0.00 0.53 0.53 52 1007.6
20260509214003 81 215 2.0 6.0 0.00 0.53 0.53 52 1007.6
20260509213503 82 198 2.0 6.0 0.00 0.53 0.53 55 1007.7
20260509213216 81 206 2.0 6.0 0.00 0.53 0.53 55 1007.8
20260509212503 81 224 2.0 5.0 0.00 0.53 0.53 57 1007.8
20260509212003 80 230 1.0 4.0 0.00 0.53 0.53 60 1007.8
20260509211503 80 209 1.0 3.0 0.00 0.53 0.53 61 1008.0
20260509211003 80 200 1.0 4.0 0.00 0.53 0.53 61 1007.9
20260509210503 79 180 1.0 4.0 0.00 0.53 0.53 62 1008.0
20260509210218 79 186 1.0 4.0 0.00 0.53 0.53 64 1008.2
20260509205503 78 195 2.0 5.0 0.12 0.53 0.53 65 1008.1
20260509205003 78 219 2.0 6.0 0.29 0.53 0.53 71 1007.9
20260509204717 78 219 2.0 6.0 0.34 0.53 0.53 71 1008.0
20260509204003 76 210 1.0 4.0 0.47 0.53 0.53 76 1008.2
20260509203503 74 224 0.0 2.0 0.51 0.53 0.53 77 1007.9
20260509203003 73 224 0.0 2.0 0.51 0.53 0.53 85 1007.9
20260509202717 72 225 0.0 2.0 0.51 0.53 0.53 90 1008.1
20260509202003 72 257 1.0 2.0 0.51 0.53 0.53 90 1008.2
20260509201503 69 237 1.0 4.0 0.51 0.53 0.53 92 1008.3
20260509201003 68 244 2.0 5.0 0.51 0.53 0.53 88 1008.4
20260509200503 69 247 2.0 5.0 0.51 0.53 0.53 84 1008.9
20260509200003 71 275 2.0 8.0 0.50 0.52 0.52 89 1009.3
20260509195503 72 46 3.0 8.0 0.39 0.41 0.41 87 1009.7
20260509195218 72 25 4.0 9.0 0.31 0.33 0.33 87 1009.8
20260509194503 72 12 5.0 11.0 0.16 0.18 0.18 78 1008.8
20260509194003 80 9 3.0 11.0 0.04 0.06 0.06 60 1009.2
20260509193503 85 8 1.0 9.0 0.00 0.02 0.02 55 1008.8
20260509193003 86 116 1.0 4.0 0.00 0.02 0.02 66 1008.8
20260509192503 87 188 2.0 4.0 0.00 0.02 0.02 64 1008.5
20260509192218 87 184 2.0 4.0 0.00 0.02 0.02 63 1008.4
20260509191503 88 116 1.0 5.0 0.00 0.02 0.02 62 1008.7
20260509191003 88 119 1.0 5.0 0.00 0.02 0.02 64 1008.7
20260509190503 88 109 1.0 5.0 0.00 0.02 0.02 62 1008.7
20260509190003 88 153 2.0 6.0 0.00 0.02 0.02 61 1008.6
20260509185503 91 239 2.0 7.0 0.00 0.02 0.02 57 1008.9
20260509185003 91 250 2.0 8.0 0.00 0.02 0.02 55 1008.7
20260509184503 90 252 2.0 8.0 0.00 0.02 0.02 59 1008.8
20260509184003 89 251 2.0 5.0 0.00 0.02 0.02 57 1009.0
20260509183503 89 270 2.0 6.0 0.00 0.02 0.02 58 1009.0
20260509183217 90 267 2.0 6.0 0.00 0.02 0.02 59 1009.2
20260509182503 88 238 2.0 5.0 0.00 0.02 0.02 60 1009.4
20260509182003 88 241 2.0 7.0 0.00 0.02 0.02 59 1009.6
20260509181503 88 255 3.0 7.0 0.00 0.02 0.02 60 1009.4
20260509181003 89 241 3.0 7.0 0.00 0.02 0.02 58 1009.5
20260509180503 88 179 1.0 5.0 0.00 0.02 0.02 61 1009.5
20260509180003 88 201 1.0 5.0 0.00 0.02 0.02 61 1009.5
20260509175503 88 239 2.0 5.0 0.00 0.02 0.02 60 1009.3
20260509175003 87 254 2.0 8.0 0.00 0.02 0.02 62 1009.7
20260509174503 87 260 3.0 8.0 0.00 0.02 0.02 64 1009.8
20260509174003 87 270 2.0 8.0 0.00 0.02 0.02 62 1009.9
20260509173503 87 265 1.0 5.0 0.00 0.02 0.02 62 1010.0
20260509173003 88 220 2.0 4.0 0.00 0.02 0.02 63 1010.1
20260509172503 87 226 1.0 4.0 0.00 0.02 0.02 62 1010.5
20260509172003 88 257 2.0 5.0 0.00 0.02 0.02 62 1010.3
20260509171503 86 253 2.0 5.0 0.00 0.02 0.02 63 1010.1
20260509171003 86 255 2.0 6.0 0.00 0.02 0.02 66 1010.0
20260509170718 86 234 2.0 6.0 0.00 0.02 0.02 66 1010.1
20260509170217 86 244 2.0 5.0 0.00 0.02 0.02 65 1010.0
20260509165718 86 246 2.0 7.0 0.00 0.02 0.02 65 1009.9
20260509165003 85 243 3.0 7.0 0.00 0.02 0.02 67 1010.1
20260509164503 85 249 2.0 6.0 0.00 0.02 0.02 66 1010.3
20260509164216 86 237 2.0 8.0 0.00 0.02 0.02 67 1010.3
20260509163503 86 235 2.0 8.0 0.00 0.02 0.02 67 1010.4
20260509163003 85 239 2.0 5.0 0.00 0.02 0.02 67 1010.4
20260509162503 87 254 2.0 4.0 0.00 0.02 0.02 66 1010.5
20260509162216 86 253 2.0 5.0 0.00 0.02 0.02 67 1010.5
20260509161503 85 229 2.0 5.0 0.00 0.02 0.02 69 1010.4
20260509161003 85 209 2.0 4.0 0.00 0.02 0.02 68 1010.4
20260509160503 84 244 2.0 4.0 0.00 0.02 0.02 69 1010.4
20260509160003 83 259 2.0 5.0 0.00 0.02 0.02 72 1010.4
20260509155503 83 265 2.0 5.0 0.00 0.02 0.02 73 1010.4
20260509155003 83 244 2.0 5.0 0.00 0.02 0.02 72 1010.1
20260509154503 82 224 2.0 5.0 0.00 0.02 0.02 72 1010.0
20260509154003 82 240 2.0 5.0 0.00 0.02 0.02 75 1010.3
20260509153503 81 236 2.0 5.0 0.00 0.02 0.02 77 1010.3
20260509153003 80 231 2.0 5.0 0.00 0.02 0.02 79 1010.1
20260509152503 79 229 2.0 4.0 0.00 0.02 0.02 79 1010.4
20260509152218 78 231 2.0 5.0 0.00 0.02 0.02 81 1010.5
20260509151503 78 230 1.0 5.0 0.00 0.02 0.02 85 1010.5
20260509151218 78 219 1.0 5.0 0.00 0.02 0.02 84 1010.4
20260509150503 77 169 1.0 5.0 0.00 0.02 0.02 86 1010.4
20260509150003 78 183 1.0 5.0 0.00 0.02 0.02 85 1010.5
20260509145503 78 206 1.0 4.0 0.00 0.02 0.02 85 1010.4
20260509145003 77 216 1.0 5.0 0.00 0.02 0.02 87 1010.4
20260509144503 75 198 2.0 5.0 0.00 0.02 0.02 90 1010.3
20260509144003 75 174 2.0 5.0 0.00 0.02 0.02 93 1010.1
20260509143503 74 137 2.0 5.0 0.00 0.02 0.02 93 1010.0
20260509143003 74 121 2.0 6.0 0.00 0.02 0.02 94 1010.0
20260509142503 74 162 2.0 6.0 0.00 0.02 0.02 94 1010.0
20260509142003 74 197 2.0 8.0 0.00 0.02 0.02 94 1009.8
20260509141503 74 187 3.0 8.0 0.00 0.02 0.02 93 1009.5
20260509141003 75 185 3.0 8.0 0.00 0.02 0.02 92 1009.6
20260509140717 75 195 3.0 8.0 0.00 0.02 0.02 92 1009.7
20260509140003 74 207 3.0 8.0 0.00 0.02 0.02 93 1009.7
20260509135503 74 200 1.0 5.0 0.00 0.02 0.02 94 1009.8
20260509135218 74 208 1.0 4.0 0.00 0.02 0.02 95 1009.7
20260509134503 73 223 1.0 4.0 0.00 0.02 0.02 95 1009.8
20260509134003 73 204 1.0 3.0 0.00 0.02 0.02 95 1010.0
20260509133503 74 212 1.0 3.0 0.00 0.02 0.02 96 1010.4
20260509133003 74 224 1.0 4.0 0.00 0.02 0.02 96 1010.3
20260509132503 73 241 2.0 5.0 0.00 0.02 0.02 97 1010.0
20260509132003 73 253 2.0 5.0 0.00 0.02 0.02 97 1010.1
20260509131503 73 302 1.0 4.0 0.00 0.02 0.02 97 1010.0
20260509131217 73 310 1.0 4.0 0.00 0.02 0.02 97 1010.1
20260509130503 73 318 1.0 3.0 0.00 0.02 0.02 97 1009.8
20260509130003 73 343 1.0 2.0 0.00 0.02 0.02 97 1009.8
20260509125503 72 340 1.0 3.0 0.00 0.02 0.02 97 1009.8
20260509125003 72 4 1.0 3.0 0.00 0.02 0.02 97 1009.7
20260509124503 72 89 0.0 2.0 0.00 0.02 0.02 97 1009.6
20260509124003 73 48 0.0 2.0 0.00 0.02 0.02 97 1009.6
20260509123503 73 320 1.0 3.0 0.00 0.02 0.02 97 1009.5
20260509123003 73 271 1.0 3.0 0.00 0.02 0.02 97 1009.6
20260509122503 72 224 1.0 4.0 0.00 0.02 0.02 98 1009.7
20260509122217 72 201 1.0 4.0 0.00 0.02 0.02 98 1009.9
20260509121503 72 186 1.0 3.0 0.00 0.02 0.02 97 1009.7
20260509121003 72 304 1.0 3.0 0.00 0.02 0.02 97 1009.9
20260509120503 72 256 1.0 3.0 0.00 0.02 0.02 97 1009.8
20260509120003 72 292 2.0 3.0 0.00 0.02 0.02 98 1010.0
20260509115503 72 13 2.0 3.0 0.00 0.02 0.02 98 1009.9
20260509115003 72 181 1.0 3.0 0.00 0.02 0.02 98 1009.7
20260509114503 72 178 1.0 5.0 0.00 0.02 0.02 97 1009.9
20260509114217 72 24 1.0 5.0 0.00 0.02 0.02 98 1009.8
20260509113503 72 358 2.0 5.0 0.00 0.02 0.02 98 1010.1
20260509113003 72 347 2.0 5.0 0.00 0.02 0.02 98 1010.6
20260509112503 72 351 2.0 5.0 0.00 0.02 0.02 98 1010.5
20260509112003 72 24 1.0 3.0 0.00 0.02 0.02 98 1010.6
20260509111718 72 259 1.0 3.0 0.00 0.02 0.02 98 1010.6
20260509111003 72 290 1.0 4.0 0.00 0.02 0.02 98 1010.5
20260509110503 72 313 1.0 4.0 0.00 0.02 0.02 98 1010.7
20260509110003 72 325 2.0 4.0 0.00 0.02 0.02 98 1010.7
20260509105717 72 297 1.0 4.0 0.00 0.02 0.02 98 1010.7
20260509105216 72 207 1.0 3.0 0.00 0.02 0.02 97 1010.5
20260509104717 72 199 1.0 3.0 0.00 0.02 0.02 97 1010.8
20260509104003 72 314 2.0 5.0 0.00 0.02 0.02 97 1010.8
20260509103503 72 345 2.0 5.0 0.00 0.02 0.02 97 1011.1
20260509103003 72 353 2.0 4.0 0.00 0.02 0.02 97 1010.8
20260509102503 72 330 2.0 5.0 0.00 0.02 0.02 97 1010.9
20260509102003 72 7 2.0 5.0 0.00 0.02 0.02 97 1010.8
20260509101503 72 354 1.0 5.0 0.00 0.02 0.02 97 1010.6
20260509101003 72 336 1.0 4.0 0.00 0.02 0.02 97 1010.4
20260509100503 72 343 1.0 4.0 0.00 0.02 0.02 97 1009.9
20260509100004 72 154 1.0 3.0 0.00 0.02 0.02 97 1009.5
20260509095503 72 337 1.0 4.0 0.00 0.02 0.02 97 1009.4
20260509095003 72 7 2.0 4.0 0.00 0.02 0.02 97 1009.2
20260509094717 72 355 2.0 4.0 0.00 0.02 0.02 97 1009.3
20260509094003 72 54 1.0 4.0 0.00 0.02 0.02 97 1009.5
20260509093503 72 25 1.0 4.0 0.01 0.02 0.02 97 1009.5
20260509093003 72 352 0.0 3.0 0.01 0.02 0.02 97 1009.5
20260509092717 72 92 0.0 2.0 0.01 0.02 0.02 97 1009.4
20260509092003 72 7 0.0 2.0 0.01 0.02 0.02 97 1009.3
20260509091717 72 341 0.0 2.0 0.01 0.02 0.02 97 1009.4
20260509091218 72 327 0.0 2.0 0.02 0.02 0.02 97 1009.2
20260509090503 72 7 0.0 2.0 0.02 0.02 0.02 97 1009.2
20260509090003 72 92 0.0 2.0 0.02 0.02 0.02 97 1009.2
20260509085503 72 319 0.0 2.0 0.02 0.02 0.02 97 1009.3
20260509085003 72 157 0.0 2.0 0.02 0.02 0.02 97 1009.4
20260509084503 72 72 0.0 2.0 0.02 0.02 0.02 97 1009.3
20260509084003 72 82 0.0 2.0 0.02 0.02 0.02 96 1009.4
20260509083503 72 56 0.0 2.0 0.01 0.01 0.01 96 1009.5
20260509083003 72 105 0.0 3.0 0.01 0.01 0.01 96 1009.6
20260509082503 72 131 0.0 3.0 0.01 0.01 0.01 96 1009.7
20260509082003 72 135 1.0 3.0 0.01 0.01 0.01 96 1010.0
20260509081503 72 148 1.0 3.0 0.00 0.00 0.00 96 1010.1
20260509081003 72 73 1.0 3.0 0.00 0.00 0.00 96 1009.8
20260509080716 72 3 1.0 3.0 0.00 0.00 0.00 96 1009.8
20260509080003 72 347 1.0 3.0 0.00 0.00 0.00 96 1009.9
20260509075503 72 16 0.0 3.0 0.00 0.00 0.00 96 1009.7
20260509075003 72 21 0.0 3.0 0.00 0.00 0.00 95 1009.6
20260509074503 72 150 1.0 3.0 0.00 0.00 0.00 95 1009.7
20260509074003 72 139 1.0 2.0 0.00 0.00 0.00 95 1009.8
20260509073503 72 72 0.0 1.0 0.00 0.00 0.00 95 1009.7
20260509073003 72 50 0.0 1.0 0.00 0.00 0.00 95 1009.9
20260509072503 72 9 0.0 1.0 0.00 0.00 0.00 95 1009.9
20260509072217 72 42 0.0 1.0 0.00 0.00 0.00 95 1009.8
20260509071503 72 94 0.0 2.0 0.00 0.00 0.00 95 1010.0
20260509071003 72 258 0.0 2.0 0.00 0.00 0.00 95 1010.0
20260509070503 72 277 0.0 2.0 0.00 0.00 0.00 94 1010.0
20260509070003 72 275 0.0 2.0 0.00 0.00 0.00 94 1010.0
20260509065503 72 199 0.0 3.0 0.00 0.00 0.00 94 1009.7
20260509065003 72 171 1.0 3.0 0.00 0.00 0.00 94 1009.7
20260509064503 72 185 1.0 3.0 0.00 0.00 0.00 94 1009.5
20260509064003 72 175 1.0 4.0 0.00 0.00 0.00 94 1009.4
20260509063503 72 178 1.0 4.0 0.00 0.00 0.00 93 1009.7
20260509063003 73 203 1.0 4.0 0.00 0.00 0.00 93 1009.8
20260509062503 73 192 0.0 3.0 0.00 0.00 0.00 93 1009.8
20260509062003 73 192 1.0 3.0 0.00 0.00 0.00 93 1009.6
20260509061718 73 190 1.0 4.0 0.00 0.00 0.00 93 1009.4
20260509061003 73 183 2.0 5.0 0.00 0.00 0.00 92 1009.2
20260509060503 73 184 2.0 5.0 0.00 0.00 0.00 92 1009.5
20260509060003 73 195 2.0 5.0 0.00 0.00 0.00 92 1009.3
20260509055503 73 193 2.0 5.0 0.00 0.00 0.00 91 1009.4
20260509055003 73 183 2.0 6.0 0.00 0.00 0.00 91 1009.7
20260509054503 73 201 1.0 6.0 0.00 0.00 0.00 91 1009.5
20260509054003 73 210 2.0 6.0 0.00 0.00 0.00 91 1009.5
20260509053503 74 189 2.0 6.0 0.00 0.00 0.00 90 1009.4
20260509053003 74 197 2.0 6.0 0.00 0.00 0.00 90 1009.0
20260509052503 74 187 2.0 7.0 0.00 0.00 0.00 90 1009.1
20260509052003 74 174 1.0 7.0 0.00 0.00 0.00 90 1009.0
20260509051503 74 187 1.0 5.0 0.00 0.00 0.00 90 1009.0
20260509051003 73 197 1.0 3.0 0.00 0.00 0.00 90 1008.9
20260509050717 73 192 1.0 3.0 0.00 0.00 0.00 90 1009.0
20260509050003 73 196 0.0 2.0 0.00 0.00 0.00 90 1009.1
20260509045503 73 200 0.0 2.0 0.00 0.00 0.00 90 1008.9
20260509045218 73 210 0.0 2.0 0.00 0.00 0.00 90 1009.0
20260509044503 74 203 0.0 2.0 0.00 0.00 0.00 90 1009.0
20260509044003 74 188 1.0 2.0 0.00 0.00 0.00 89 1009.0
20260509043503 74 183 1.0 2.0 0.00 0.00 0.00 89 1009.2
20260509043003 74 186 1.0 3.0 0.00 0.00 0.00 88 1009.1
20260509042503 74 183 1.0 4.0 0.00 0.00 0.00 88 1009.1
20260509042003 74 192 1.0 4.0 0.00 0.00 0.00 88 1009.3
20260509041503 74 198 1.0 4.0 0.00 0.00 0.00 88 1009.2
20260509041003 74 187 1.0 4.0 0.00 0.00 0.00 87 1009.2
20260509040717 74 197 1.0 4.0 0.00 0.00 0.00 87 1009.2
20260509040218 74 201 1.0 4.0 0.00 0.00 0.00 87 1009.3
20260509035503 74 243 0.0 3.0 0.00 0.00 0.00 87 1009.2
20260509035003 74 216 1.0 3.0 0.00 0.00 0.00 87 1009.1
20260509034717 74 205 1.0 3.0 0.00 0.00 0.00 87 1009.2
20260509034003 74 213 0.0 3.0 0.00 0.00 0.00 87 1009.0